CDT,Max TemperatureF,Mean TemperatureF,Min TemperatureF,Max Dew PointF,MeanDew PointF,Min DewpointF,Max Humidity, Mean Humidity, Min Humidity, Max Sea Level PressureIn, Mean Sea Level PressureIn, Min Sea Level PressureIn, Max VisibilityMiles, Mean VisibilityMiles, Min VisibilityMiles, Max Wind SpeedMPH, Mean Wind SpeedMPH, Max Gust SpeedMPH,PrecipitationIn, CloudCover, Events, WindDirDegrees
2013-7-1,87,74,61,54,49,44,73,41,25,30.14,30.08,30.02,10,10,9,16,11,25,0.00,1,,23
2013-7-2,90,74,58,50,44,38,64,34,17,30.18,30.10,29.99,10,10,2,13,6,17,0.00,0,,7
2013-7-3,90,74,58,48,45,43,65,36,20,30.07,29.99,29.89,10,10,10,12,5,,0.00,2,,113
2013-7-4,95,77,64,56,52,48,64,51,23,30.01,29.96,29.83,10,10,10,14,9,,0.00,4,Rain,121
2013-7-5,100,84,67,59,53,46,74,35,16,29.95,29.87,29.76,10,10,10,22,14,29,0.00,0,,150
2013-7-6,101,85,70,58,55,50,60,34,18,29.91,29.85,29.78,10,10,10,23,14,31,0.00,2,,149
2013-7-7,100,86,72,61,59,56,62,37,26,29.98,29.92,29.87,10,10,10,21,12,24,0.00,1,,139
2013-7-8,102,87,73,67,62,59,71,44,25,30.01,29.96,29.90,10,10,10,17,10,25,0.00,1,,139
2013-7-9,102,88,74,67,62,59,70,45,24,30.05,29.97,29.88,10,10,10,18,11,24,0.00,0,,177
2013-7-10,103,87,72,62,60,58,66,39,23,30.00,29.94,29.86,10,10,10,17,7,20,0.00,1,,170
2013-7-11,106,90,74,72,64,57,70,49,20,29.95,29.91,29.82,10,10,10,18,8,29,0.03,4,Rain-Thunderstorm,77
2013-7-12,104,90,75,70,63,58,80,40,22,29.93,29.88,29.83,10,9,2,18,11,23,0.00,1,,133
2013-7-13,106,90,76,67,61,51,70,40,17,29.96,29.88,29.79,10,10,7,17,9,17,0.00,1,,138
2013-7-14,85,76,66,67,65,60,100,90,49,30.09,30.04,29.85,10,10,9,23,8,29,0.08,7,Rain,9
2013-7-15,77,70,64,70,65,62,100,87,61,30.13,30.07,30.01,10,10,6,16,8,21,0.01,7,Rain,65
2013-7-16,75,71,67,74,70,68,100,100,91,30.24,30.15,30.06,10,7,0,18,10,26,2.31,7,Fog-Rain,110
2013-7-17,87,78,68,74,71,68,100,87,55,30.30,30.24,30.16,10,10,3,21,10,26,0.08,5,Rain,109
2013-7-18,90,79,68,72,69,65,100,75,46,30.23,30.14,30.00,10,10,6,18,7,24,0.00,1,,149
2013-7-19,94,80,68,72,67,63,100,64,36,30.03,29.97,29.88,10,10,10,17,6,20,0.00,1,,180
2013-7-20,97,83,70,72,66,60,100,58,29,29.94,29.87,29.79,10,10,10,18,8,23,0.00,0,,174
2013-7-21,99,84,70,71,65,61,100,51,29,29.89,29.83,29.77,10,10,10,20,10,23,0.00,1,,188
2013-7-22,98,84,72,72,69,67,92,55,37,29.92,29.86,29.77,10,10,10,20,9,25,0.00,1,,178
2013-7-23,99,86,74,72,70,68,92,61,37,29.88,29.83,29.75,10,10,10,21,9,23,0.00,0,,172
2013-7-24,97,85,74,73,69,66,94,64,39,30.00,29.90,29.80,10,10,10,34,11,43,0.00,1,,119
2013-7-25,87,78,71,76,72,70,100,80,56,30.11,30.03,29.94,10,10,6,18,9,23,0.96,5,Rain-Thunderstorm,109
2013-7-26,88,80,72,77,73,66,100,84,49,30.06,29.98,29.88,10,10,3,23,10,29,0.16,6,Rain,51
2013-7-27,89,78,68,70,66,62,100,69,41,30.08,30.00,29.89,10,10,10,15,6,,0.00,0,,131
2013-7-28,90,78,66,68,63,56,100,58,31,29.97,29.91,29.83,10,10,10,18,11,25,0.00,0,,146
2013-7-29,94,84,74,74,70,67,88,63,47,29.89,29.85,29.79,10,10,10,24,14,33,0.00,1,,146
2013-7-30,98,86,75,74,69,65,77,58,38,30.00,29.95,29.88,10,10,10,16,10,24,0.00,2,,36
2013-7-31,97,86,75,75,71,65,99,68,35,30.08,30.02,29.96,10,10,10,14,10,20,0.00,0,,39